This demonstration page uses our WeatherBlox Daily Observations layout. Learn more.

38.89511, -77.03637

Hourly Observations for June 4, 2015

Temp ( °F °C ) Dew Point ( °F °C ) Humidity (%) Winds ( mph kmh ) Pressure ( in mb ) Visibility ( mi km ) Precip ( " mm )
12:15 am 00:15 Cloudy 63 17 55 13 77 77 ENE 8 13 30.18 1022 10 16.09344 0.001 0.001
12:52 am 00:52 Cloudy with Light Rain 61 16 55 13 83 83 ENE 8 13 30.18 1022 10 16.09344 0.001 0.001
1:52 am 01:52 Cloudy with Light Rain 61 16 55 13 83 83 ENE 7 11 30.18 1022 8 12.874752 0.001 0.001
2:31 am 02:31 Cloudy with Light Rain 61 16 55 13 83 83 NE 7 11 30.18 1022 10 16.09344 0.01 0.254
2:38 am 02:38 Cloudy with Light Rain 61 16 55 13 83 83 ENE 9 15 30.18 1022 10 16.09344 0 0
2:52 am 02:52 Cloudy with Light Rain 61 16 55 13 83 83 NNE 8 13 30.18 1022 10 16.09344 0.01 0.254
3:01 am 03:01 Cloudy 61 16 55 13 83 83 NNE 7 11 30.18 1022 10 16.09344 0.001 0.001
3:23 am 03:23 Cloudy with Light Rain 61 16 55 13 83 83 NE 9 15 30.18 1022 10 16.09344 0.001 0.001
3:52 am 03:52 Cloudy with Light Rain 61 16 55 13 83 83 NE 10 17 30.18 1022 10 16.09344 0.001 0.001
4:03 am 04:03 Cloudy 61 16 55 13 83 83 NNE 9 15 30.18 1022 10 16.09344 0 0
4:52 am 04:52 Cloudy 61 16 55 13 83 83 NNE 15 24 30.15 1021 10 16.09344 0.001 0.001
5:00 am 05:00 Cloudy 61 16 55 13 83 83 NE 12 19 30.18 1022 10 16.09344 0 0
5:52 am 05:52 Cloudy with Light Rain 59 15 54 12 82 82 NNE 12 19 30.18 1022 10 16.09344 0.01 0.254
6:22 am 06:22 Cloudy with Light Rain 59 15 54 12 82 82 NE 9 15 30.18 1022 5 8.04672 0 0
6:35 am 06:35 Cloudy 59 15 54 12 82 82 NNE 9 15 30.18 1022 10 16.09344 0.001 0.001
6:52 am 06:52 Cloudy with Light Rain 59 15 54 12 82 82 NE 9 15 30.18 1022 8 12.874752 0.001 0.001
6:58 am 06:58 Cloudy with Light Rain 59 15 54 12 82 82 NE 8 13 30.18 1022 8 12.874752 0 0
7:52 am 07:52 Cloudy 61 16 55 13 83 83 NNE 9 15 30.18 1022 10 16.09344 0.001 0.001
8:52 am 08:52 Cloudy with Light Drizzle 61 16 55 13 83 83 NE 9 15 30.21 1023 6 9.656064 0.001 0.001
9:09 am 09:09 Cloudy with Light Drizzle 61 16 55 13 83 83 NE 9 15 30.21 1023 2.5 4.02336 0.001 0.001
9:25 am 09:25 Cloudy with Light Drizzle 61 16 55 13 83 83 NNE 7 11 30.21 1023 2.5 4.02336 0.001 0.001
9:34 am 09:34 Cloudy with Light Drizzle 61 16 55 13 83 83 NNE 12 19 30.21 1023 3 4.828032 0 0
9:52 am 09:52 Cloudy with Haze 61 16 55 13 83 83 NNE 9 15 30.18 1022 5 8.04672 0.001 0.001
10:20 am 10:20 Cloudy 63 17 55 13 77 77 NE 12 19 30.18 1022 7 11.265408 0 0
10:52 am 10:52 Cloudy 63 17 57 14 83 83 ENE 12 19 30.21 1023 7 11.265408 0 0
11:20 am 11:20 Cloudy 63 17 57 14 83 83 ENE 12 19 30.21 1023 7 11.265408 0 0
11:52 am 11:52 Cloudy 63 17 57 14 83 83 NE 10 17 30.21 1023 8 12.874752 0 0
12:52 pm 12:52 Cloudy 64 18 57 14 78 78 NNE 12 19 30.18 1022 10 16.09344 0 0
1:52 pm 13:52 Cloudy 64 18 57 14 78 78 NE 9 15 30.18 1022 10 16.09344 0 0
2:52 pm 14:52 Cloudy with Light Rain 64 18 57 14 78 78 ENE 8 13 30.18 1022 4 6.437376 0.001 0.001
3:09 pm 15:09 Cloudy with Light Rain 64 18 57 14 78 78 NE 9 15 30.18 1022 7 11.265408 0.001 0.001
3:52 pm 15:52 Cloudy with Light Rain 64 18 57 14 78 78 NE 10 17 30.18 1022 10 16.09344 0.001 0.001
4:52 pm 16:52 Cloudy with Light Rain 64 18 57 14 78 78 E 9 15 30.18 1022 10 16.09344 0.01 0.254
5:18 pm 17:18 Cloudy with Heavy Rain 64 18 59 15 83 83 NNE 10 17 30.15 1021 1.75 2.816352 0 0
5:19 pm 17:19 Cloudy with Heavy Rain 64 18 59 15 83 83 NNE 10 17 30.15 1021 1.5 2.414016 0 0
5:31 pm 17:31 Cloudy with Light Rain 64 18 61 16 88 88 NNE 8 13 30.15 1021 4 6.437376 0.16 4.064
5:35 pm 17:35 Cloudy with Rain 64 18 59 15 83 83 NNE 8 13 30.15 1021 4 6.437376 0.17 4.318
5:52 pm 17:52 Cloudy with Light Rain 64 18 59 15 83 83 NNE 6 9 30.18 1022 5 8.04672 0.21 5.334
6:08 pm 18:08 Cloudy with Light Rain 64 18 61 16 88 88 NE 6 9 30.18 1022 2.5 4.02336 0 0
6:12 pm 18:12 Cloudy with Heavy Rain 64 18 61 16 88 88 NNE 6 9 30.18 1022 1.75 2.816352 0 0
6:18 pm 18:18 Cloudy with Light Rain 64 18 61 16 88 88 NE 7 11 30.18 1022 3 4.828032 0 0
6:24 pm 18:24 Cloudy with Rain 64 18 61 16 88 88 NNE 7 11 30.18 1022 2.5 4.02336 0 0
6:26 pm 18:26 Cloudy with Rain 64 18 61 16 88 88 NNE 6 9 30.18 1022 2.5 4.02336 0.1 2.54
6:28 pm 18:28 Cloudy with Light Rain 64 18 61 16 88 88 NNE 9 15 30.18 1022 3 4.828032 0 0
6:52 pm 18:52 Cloudy with Light Rain 64 18 59 15 83 83 NNE 7 11 30.15 1021 5 8.04672 0.11 2.794
7:14 pm 19:14 Cloudy with Light Rain 64 18 61 16 88 88 NNE 8 13 30.15 1021 5 8.04672 0 0
7:24 pm 19:24 Cloudy with Light Rain 64 18 61 16 88 88 NNE 8 13 30.15 1021 5 8.04672 0 0
7:37 pm 19:37 Cloudy with Light Rain 64 18 61 16 88 88 NNE 8 13 30.15 1021 6 9.656064 0.01 0.254
7:52 pm 19:52 Cloudy with Light Rain 64 18 61 16 88 88 NE 13 20 30.15 1021 9 14.484096 0.02 0.508
8:14 pm 20:14 Cloudy with Light Rain 64 18 61 16 88 88 ENE 12 19 30.15 1021 10 16.09344 0 0
8:37 pm 20:37 Cloudy with Light Rain 63 17 59 15 88 88 NNE 10 17 30.15 1021 10 16.09344 0.001 0.001
8:49 pm 20:49 Cloudy with Light Rain 63 17 59 15 88 88 NE 12 19 30.15 1021 10 16.09344 0.001 0.001
8:52 pm 20:52 Cloudy with Light Rain 63 17 59 15 88 88 NE 10 17 30.15 1021 10 16.09344 0.001 0.001
9:17 pm 21:17 Cloudy 63 17 59 15 88 88 ENE 10 17 30.15 1021 10 16.09344 0.001 0.001
9:44 pm 21:44 Cloudy 63 17 57 14 83 83 ENE 13 20 30.18 1022 10 16.09344 0 0
9:52 pm 21:52 Cloudy 63 17 57 14 83 83 ENE 13 20 30.18 1022 10 16.09344 0.001 0.001
10:35 pm 22:35 Cloudy with Light Rain 63 17 57 14 83 83 ENE 10 17 30.18 1022 10 16.09344 0.001 0.001
10:52 pm 22:52 Cloudy with Light Rain 63 17 57 14 83 83 NE 10 17 30.18 1022 10 16.09344 0.001 0.001
11:44 pm 23:44 Cloudy with Light Rain 63 17 57 14 83 83 NE 9 15 30.15 1021 10 16.09344 0 0
11:52 pm 23:52 Cloudy with Light Rain 63 17 57 14 83 83 NE 9 15 30.15 1021 10 16.09344 0.001 0.001

Powered by AerisWeather